Wetbulb
68.94 67.68 66.94 67.09 67.48 67.60 67.55 67.45 67.34 67.38 67.39 67.10 66.91 66.78 67.39 66.27 64.08 62.33 64.29 65.27 67.99 67.34 67.90 68.83 68.57 68.43 68.09 66.84 67.22 67.92 67.07 66.88 67.06
69.11 68.29 67.38 67.19 67.60 67.91 68.26 68.27 68.06 68.12 68.30 67.96 67.63 67.71 67.48 62.88 61.90 62.70 65.22 65.25 68.08 67.66 68.37 68.02 68.08 68.60 68.83 68.33 68.71 69.25 68.61 68.56 68.12
69.22 68.90 68.01 67.42 67.60 68.26 68.74 68.47 68.62 68.78 68.40 67.97 67.46 66.81 65.88 61.38 60.57 61.25 62.38 67.48 66.98 67.10 66.41 67.06 68.82 68.72 69.09 68.88 68.75 69.06 69.25 68.76 68.82
69.88 69.26 68.49 68.02 67.77 68.45 68.52 68.62 68.83 68.33 67.45 66.21 64.56 63.94 63.56 58.30 59.17 60.57 60.35 66.95 65.61 66.13 66.59 67.64 66.99 66.94 66.81 67.01 67.32 67.61 67.79 68.26 68.38
70.31 69.47 69.28 68.08 68.34 68.92 68.90 68.74 68.02 67.18 65.32 62.96 63.08 60.22 60.95 56.16 57.79 58.79 60.71 65.37 65.56 67.09 67.01 66.53 66.38 65.63 64.75 65.12 65.52 65.49 65.36 65.43 65.43
67.79 67.18 68.21 68.66 68.74 68.56 67.83 67.66 66.68 64.78 62.67 62.27 60.55 54.95 53.02 54.21 55.94 57.27 64.60 66.95 66.61 66.68 65.62 65.01 65.01 64.14 63.12 63.63 63.65 63.33 63.28 63.54 63.49
66.41 65.81 67.02 68.64 68.67 67.80 66.28 65.10 64.26 59.92 54.89 50.05 53.00 47.66 51.68 54.90 57.27 59.59 65.35 65.65 65.96 64.69 63.48 63.46 63.39 62.64 62.19 62.03 62.13 61.91 61.85 61.66 61.35
63.83 63.43 64.59 64.13 64.77 62.14 59.36 55.35 52.44 49.18 48.00 46.16 44.70 46.12 51.89 53.59 56.34 62.33 65.81 63.96 64.38 62.86 61.60 61.54 61.43 60.86 60.33 59.83 59.44 59.33 59.02 58.83 58.72
61.09 61.64 61.91 61.79 60.67 57.21 54.87 50.79 46.50 44.85 44.09 43.68 42.69 43.88 49.98 51.72 54.14 59.25 62.78 62.92 61.95 60.63 59.79 58.73 58.14 57.56 57.22 57.04 56.88 56.70 56.86 57.16 57.05
60.59 60.35 60.71 60.74 60.00 54.07 49.21 45.03 44.48 43.33 42.63 42.64 42.08 42.11 47.89 49.84 52.16 54.02 59.83 59.98 59.02 58.07 57.15 56.54 56.02 55.52 55.51 55.71 55.71 55.65 55.75 55.74 55.85
60.09 59.83 60.12 55.88 53.70 49.10 45.02 43.92 43.17 41.89 41.69 41.70 41.05 40.53 44.61 48.00 49.25 50.48 53.58 57.10 55.56 54.78 54.01 53.61 53.40 53.70 54.26 54.88 54.94 54.86 54.96 55.13 55.23
59.05 57.33 54.45 50.51 46.65 45.21 44.48 43.10 41.99 41.58 41.86 40.07 40.60 40.63 41.06 46.26 46.26 47.14 46.16 48.65 54.54 52.60 51.91 51.70 51.55 51.96 53.01 53.64 53.83 53.66 53.76 53.88 53.97
55.98 54.45 50.41 46.93 45.57 44.33 43.25 42.28 40.57 39.65 39.07 38.11 38.49 39.77 40.27 42.47 43.94 44.29 43.23 43.64 45.12 48.58 49.71 49.09 49.51 50.28 51.28 52.49 53.09 52.47 52.20 52.41 52.71
55.38 52.16 47.43 45.78 44.34 43.10 42.79 40.21 39.58 37.96 38.07 39.29 38.53 39.57 39.71 39.75 42.55 41.51 40.96 41.62 41.44 40.28 48.26 48.11 47.65 47.67 48.58 49.82 50.60 50.95 51.41 50.88 51.36
54.96 49.34 47.23 46.02 43.28 41.80 41.09 39.47 38.08 37.40 36.91 41.02 40.76 39.85 40.17 39.10 38.62 38.92 41.07 40.02 39.57 38.87 38.76 38.00 39.99 45.78 46.05 46.89 48.32 49.27 49.79 49.88 49.83
53.77 48.98 47.57 44.60 43.03 41.21 40.66 39.25 37.93 36.78 36.08 37.09 37.76 38.91 38.44 39.01 39.40 39.48 39.17 39.44 38.83 37.59 36.81 36.18 36.01 37.06 44.31 44.45 46.56 47.33 47.88 48.47 49.04
52.27 49.23 47.36 44.09 42.15 42.39 39.98 39.42 37.81 36.62 35.20 35.19 35.35 34.20 36.56 36.75 36.97 37.36 37.98 35.84 36.53 36.70 36.86 35.60 35.90 35.07 35.02 38.13 44.99 44.60 45.77 47.22 48.60
51.53 49.14 47.05 45.17 44.52 42.67 40.80 39.04 38.86 36.29 35.38 34.46 35.23 32.19 32.67 31.38 34.41 35.09 34.50 34.39 34.25 34.34 34.93 35.37 35.50 35.07 34.28 37.71 39.07 43.91 44.21 45.85 47.97
49.68 48.20 46.27 44.69 44.06 42.42 38.87 39.50 37.97 37.20 35.13 35.27 36.30 33.04 32.64 30.61 30.36 33.05 33.39 33.46 34.31 32.68 32.99 33.47 33.97 33.74 33.69 37.37 40.77 43.83 44.49 46.16 47.93
47.94 46.67 44.90 44.05 41.29 40.60 40.42 37.93 37.82 36.12 35.31 34.89 33.37 32.26 31.79 30.85 30.00 28.70 30.33 32.07 32.57 32.97 32.72 32.47 31.78 32.50 32.53 33.19 37.28 43.31 44.41 46.12 46.99
MSLP
1016.45 1016.68 1016.86 1016.97 1017.06 1017.10 1017.08 1017.16 1017.19 1017.23 1017.25 1017.26 1017.24 1017.31 1017.36 1017.45 1017.40 1017.41 1017.39 1017.35 1017.22 1017.22 1017.19 1017.16 1016.98 1017.00 1016.97 1017.04 1016.96 1016.95 1016.87 1017.03 1016.98
1016.57 1016.80 1016.98 1017.12 1017.23 1017.28 1017.24 1017.23 1017.27 1017.26 1017.27 1017.28 1017.33 1017.43 1017.56 1017.61 1017.38 1017.39 1017.56 1017.46 1017.33 1017.30 1017.48 1017.34 1017.15 1016.97 1016.96 1016.99 1016.82 1016.69 1016.67 1016.72 1016.78
1016.57 1016.89 1017.07 1017.17 1017.21 1017.32 1017.36 1017.35 1017.38 1017.35 1017.31 1017.36 1017.47 1017.45 1017.55 1017.69 1017.79 1017.85 1017.74 1017.57 1017.49 1017.48 1017.57 1017.47 1017.45 1017.35 1017.17 1017.12 1016.93 1016.79 1016.80 1016.68 1016.69
1016.46 1016.82 1017.07 1017.19 1017.32 1017.43 1017.43 1017.49 1017.51 1017.45 1017.49 1017.56 1017.51 1017.66 1017.62 1017.83 1018.00 1018.07 1018.03 1017.71 1017.53 1017.66 1017.71 1017.67 1017.62 1017.80 1017.70 1017.53 1017.42 1017.27 1017.20 1017.09 1017.04
1016.40 1016.76 1017.06 1017.23 1017.33 1017.49 1017.49 1017.55 1017.68 1017.70 1017.78 1017.83 1017.72 1017.87 1017.91 1018.24 1018.34 1018.23 1017.98 1017.79 1017.71 1017.89 1017.88 1018.04 1017.94 1018.22 1018.38 1018.02 1017.94 1017.84 1017.72 1017.80 1017.57
1016.46 1016.75 1016.96 1017.14 1017.34 1017.52 1017.52 1017.64 1017.74 1017.83 1017.82 1018.00 1018.09 1018.04 1018.32 1018.39 1018.67 1018.46 1017.94 1017.93 1018.00 1018.34 1018.27 1018.38 1018.47 1018.74 1018.70 1018.51 1018.41 1018.38 1018.29 1018.20 1018.27
1016.55 1016.80 1016.95 1017.15 1017.31 1017.48 1017.63 1017.74 1017.88 1018.11 1018.13 1018.30 1018.38 1018.57 1018.70 1018.67 1018.78 1018.48 1018.03 1018.16 1018.29 1018.68 1018.78 1018.73 1018.86 1019.04 1019.10 1019.08 1019.04 1018.92 1018.70 1018.77 1018.67
1016.71 1016.88 1017.04 1017.21 1017.46 1017.74 1017.84 1018.09 1018.25 1018.44 1018.58 1018.70 1018.79 1018.87 1018.96 1018.95 1018.97 1018.54 1018.38 1018.39 1018.60 1019.09 1019.23 1019.29 1019.14 1019.43 1019.41 1019.42 1019.44 1019.33 1019.13 1019.17 1019.05
1016.81 1016.98 1017.10 1017.41 1017.59 1017.96 1018.09 1018.36 1018.61 1018.69 1018.87 1018.87 1019.14 1019.19 1019.31 1019.31 1019.36 1019.03 1018.84 1018.83 1018.99 1019.51 1019.55 1019.70 1019.60 1019.71 1019.66 1019.57 1019.60 1019.57 1019.51 1019.45 1019.38
1016.72 1016.98 1017.09 1017.35 1017.49 1017.96 1018.25 1018.44 1018.68 1018.89 1019.02 1019.11 1019.28 1019.45 1019.66 1019.75 1019.71 1019.58 1019.38 1019.44 1019.60 1019.81 1019.92 1019.95 1020.01 1020.00 1019.96 1019.76 1019.77 1019.88 1019.68 1019.56 1019.60
1016.39 1016.83 1017.08 1017.40 1017.55 1017.95 1018.30 1018.56 1018.86 1019.08 1019.12 1019.31 1019.45 1019.68 1019.90 1020.04 1020.13 1020.01 1019.84 1019.86 1020.02 1020.12 1020.28 1020.34 1020.38 1020.30 1020.17 1020.05 1019.97 1020.02 1019.90 1019.82 1019.76
1015.96 1016.60 1017.10 1017.41 1017.68 1018.00 1018.35 1018.72 1019.02 1019.28 1019.35 1019.58 1019.56 1019.76 1019.99 1020.26 1020.39 1020.39 1020.36 1020.26 1020.22 1020.32 1020.45 1020.52 1020.57 1020.55 1020.36 1020.20 1020.11 1020.06 1020.05 1019.98 1019.93
1015.68 1016.35 1016.88 1017.22 1017.66 1017.97 1018.45 1018.93 1019.34 1019.53 1019.61 1019.73 1019.77 1019.83 1019.97 1020.25 1020.44 1020.49 1020.57 1020.63 1020.64 1020.57 1020.62 1020.78 1020.72 1020.62 1020.50 1020.47 1020.21 1020.16 1020.11 1020.06 1020.06
1015.41 1016.15 1016.85 1017.22 1017.65 1018.06 1018.55 1019.23 1019.40 1019.84 1019.87 1019.87 1019.85 1019.95 1020.10 1020.19 1020.32 1020.60 1020.69 1020.79 1020.91 1020.99 1020.79 1020.93 1020.92 1020.76 1020.72 1020.64 1020.42 1020.20 1020.14 1020.14 1020.18
1015.08 1016.07 1016.73 1017.11 1017.65 1018.24 1018.72 1019.16 1019.64 1019.95 1020.03 1019.93 1020.10 1020.24 1020.28 1020.30 1020.44 1020.59 1020.62 1020.85 1020.91 1021.08 1021.06 1021.14 1021.14 1020.90 1020.83 1020.78 1020.59 1020.29 1020.12 1020.14 1020.18
1014.70 1015.50 1016.30 1016.79 1017.27 1018.10 1018.66 1019.20 1019.70 1020.22 1020.21 1020.41 1020.60 1020.59 1020.53 1020.56 1020.60 1020.58 1020.64 1020.73 1020.91 1021.10 1021.30 1021.38 1021.36 1021.26 1020.91 1020.86 1020.61 1020.39 1020.23 1020.14 1020.02
1014.36 1014.89 1015.80 1016.32 1017.19 1018.08 1018.59 1018.79 1019.77 1020.22 1020.17 1020.55 1021.10 1021.23 1021.09 1020.79 1020.81 1020.85 1020.89 1020.99 1021.06 1021.26 1021.34 1021.43 1021.36 1021.32 1021.28 1021.06 1020.58 1020.41 1020.26 1020.06 1019.85
1013.86 1014.53 1015.21 1016.17 1016.56 1017.54 1018.04 1018.43 1019.00 1020.00 1020.36 1020.28 1020.60 1021.42 1021.50 1021.54 1021.24 1021.22 1021.22 1021.28 1021.42 1021.54 1021.53 1021.46 1021.42 1021.30 1021.18 1020.97 1020.72 1020.32 1020.17 1019.98 1019.66
1013.13 1014.10 1014.75 1015.72 1016.43 1017.07 1017.39 1017.97 1018.58 1019.16 1020.21 1020.57 1020.52 1020.67 1021.01 1021.68 1021.94 1021.69 1021.63 1021.55 1021.51 1021.56 1021.57 1021.54 1021.43 1021.33 1021.16 1020.85 1020.60 1020.27 1019.98 1019.68 1019.35
1013.00 1013.66 1014.66 1015.29 1016.28 1017.10 1017.44 1018.06 1018.47 1018.95 1019.74 1020.24 1020.67 1020.97 1021.20 1021.38 1021.86 1022.21 1021.95 1021.72 1021.46 1021.41 1021.48 1021.43 1021.53 1021.43 1021.23 1020.97 1020.63 1020.18 1019.87 1019.62 1019.31
Wind_Speed
13 12 11 10 10 9 9 8 8 7 6 5 4 4 7 6 5 4 7 4 3 4 5 3 2 4 4 4 5 6 5 5 4
13 12 11 10 8 8 8 8 8 7 6 5 4 5 7 5 4 3 3 2 6 6 7 8 7 6 6 3 6 4 7 7 6
13 12 10 9 8 7 7 8 7 6 5 3 4 6 8 5 6 5 4 4 5 6 6 6 11 13 13 10 8 8 10 4 5
13 13 11 9 8 7 7 7 6 5 4 4 5 7 5 5 4 3 2 3 5 6 6 9 11 12 13 13 13 14 15 14 14
14 12 10 10 8 7 6 6 4 4 4 6 7 10 12 6 4 2 1 3 7 9 10 11 12 12 11 12 13 13 13 13 13
9 8 10 9 8 7 6 5 5 3 4 6 8 9 3 5 2 1 2 11 10 12 12 11 12 12 10 12 12 12 13 13 14
5 6 10 9 8 6 5 5 5 4 3 3 6 3 4 3 2 1 6 11 12 12 11 10 12 11 11 12 12 12 12 13 13
3 3 3 3 5 1 3 3 3 4 3 3 4 4 4 3 2 4 11 10 12 11 10 10 11 10 10 10 10 11 12 12 12
4 3 4 4 3 3 3 2 3 4 4 4 5 5 4 3 2 4 10 11 11 9 10 9 9 9 9 9 9 9 10 11 11
5 4 4 4 4 3 4 4 4 4 4 4 5 4 5 4 2 2 11 11 11 9 9 9 9 8 8 9 9 9 8 9 10
6 5 4 4 4 4 4 4 4 3 3 4 4 4 5 4 4 3 4 11 10 9 8 8 7 8 8 9 9 9 9 10 10
8 5 5 4 4 6 5 4 4 4 3 4 3 3 5 5 4 3 3 5 9 8 7 7 7 8 9 9 9 9 9 10 11
7 6 5 5 5 5 4 3 4 3 3 1 2 2 3 5 5 4 3 3 3 5 6 6 7 8 9 10 10 8 9 9 9
8 6 5 6 5 4 4 2 3 2 2 0 1 1 2 5 4 5 4 4 3 2 5 6 6 7 7 8 10 10 10 8 8
10 6 7 6 5 5 4 4 3 2 1 2 3 2 1 3 4 5 3 4 4 3 3 2 2 4 4 7 10 10 9 8 8
11 8 8 6 7 6 6 4 4 3 1 3 3 3 3 1 1 1 2 3 3 3 2 1 1 2 1 4 9 9 8 10 9
11 12 10 8 7 7 5 5 3 2 2 3 2 1 3 3 3 2 2 2 3 3 3 2 3 2 2 5 8 7 9 10 13
12 11 10 8 8 8 6 6 6 4 1 3 4 2 4 1 2 2 3 3 3 2 4 5 5 3 3 6 8 8 9 11 13
14 12 11 9 5 7 6 5 4 5 4 1 3 4 4 3 1 2 1 2 1 2 2 3 5 5 4 7 9 11 12 15 16
10 12 11 10 5 5 6 5 6 3 4 3 2 2 3 3 3 3 3 2 2 2 2 4 3 5 5 5 6 11 13 16 18
Wind_Direction
135 133 133 132 129 128 126 124 119 115 113 110 85 51 37 26 344 156 189 168 124 51 34 355 286 259 264 259 265 263 247 235 241
148 145 145 144 141 135 136 133 130 125 117 102 71 36 34 26 1 127 46 58 58 39 40 25 26 27 39 39 23 310 237 240 244
162 157 155 154 152 148 143 138 134 127 115 87 43 30 44 46 58 57 51 55 57 45 41 41 58 52 51 44 41 35 35 303 305
174 166 164 164 158 156 152 150 142 132 122 79 61 39 53 82 78 57 35 43 74 68 70 72 65 55 48 46 45 48 47 45 45
167 162 168 166 162 159 151 147 140 115 84 60 57 73 95 79 74 49 19 60 87 88 81 72 70 59 51 51 51 53 53 48 48
145 157 162 165 165 166 158 149 126 109 68 37 81 78 92 95 76 317 59 92 92 85 73 66 71 63 53 49 48 48 44 43 41
155 162 168 169 168 169 160 140 128 75 63 47 58 72 102 90 94 298 106 103 93 78 69 74 74 66 58 54 52 49 45 40 39
156 157 166 160 164 142 101 80 72 84 76 58 60 84 98 88 46 44 95 108 97 82 79 74 72 66 61 55 47 40 37 31 29
171 174 166 171 150 159 134 104 97 86 76 87 81 82 108 94 58 56 86 94 95 96 83 75 69 61 52 49 41 36 33 27 23
170 188 167 177 150 157 136 121 112 93 78 61 92 88 113 113 92 68 89 95 96 88 78 70 61 51 43 42 36 25 25 24 16
173 176 172 169 161 148 139 136 118 90 83 71 80 103 127 122 116 95 95 105 100 91 76 59 49 37 32 32 31 25 22 18 6
169 166 154 158 147 132 111 89 84 76 59 61 76 105 124 143 131 122 102 99 99 101 82 58 60 32 29 23 17 21 20 10 6
152 154 152 155 141 128 113 114 83 79 64 58 20 97 124 148 153 139 135 133 113 110 95 70 61 38 22 12 9 16 8 4 6
151 152 149 147 134 118 126 83 116 100 49 143 80 85 135 149 143 156 158 159 145 142 104 102 70 36 16 9 1 350 354 356 0
154 139 149 144 127 126 127 124 65 107 118 61 50 22 38 140 157 173 167 174 162 148 134 96 8 29 27 6 350 340 338 344 334
158 151 153 151 143 150 149 121 113 47 30 93 32 14 14 84 82 126 144 164 147 130 100 30 356 312 349 353 342 340 327 323 322
161 157 164 157 133 142 165 139 123 108 36 130 88 109 331 2 21 51 114 100 89 81 43 3 331 303 313 297 325 316 315 312 314
163 162 157 160 152 162 171 153 143 145 17 53 137 100 217 11 350 31 48 87 90 59 5 14 8 346 296 305 300 286 296 304 308
157 156 154 151 147 164 158 155 149 128 144 66 50 73 132 160 324 332 302 336 70 9 1 344 342 359 341 335 314 294 297 301 305
156 149 148 144 140 145 144 144 138 122 135 148 145 75 60 84 126 247 307 327 291 358 341 333 16 9 10 352 343 341 326 315 309